Regional Weather Roundup
Issued by NWS

Home | Current Version | Previous Version | Graphics & Text | Print | Product List | Glossary On
Versions: 1 2 3 4 5 6 7 8 9 10 11 12 13 14 15 16 17 18 19 20 21 22 23 24 25 26 27
000
ASUS45 KBOU 220107
RWRCO

WEATHER ROUNDUP FOR COLORADO
NATIONAL WEATHER SERVICE DENVER/BOULDER CO
700 PM MDT SAT OCT 21 2017

NOTE: "FAIR" INDICATES FEW OR NO CLOUDS BELOW 12000 FEET WITH NO
SIGNIFICANT WEATHER AND/OR OBSTRUCTIONS TO VISIBILITY.

COZ001>005-013-030-031-220200-
...NORTHWEST COLORADO...

CITY           SKY/WX    TMP DP  RH WIND       PRES   REMARKS
CRAIG          FAIR      34  23  64 SW8       30.23R WCI  27
HAYDEN         FAIR      35  23  61 W5        30.25R WCI  31
MEEKER         FAIR      40  27  59 CALM      30.24R
RABBIT EARS PA FAIR      19  18  93 W10G20    30.22R WCI   8
STEAMBOAT SPGS FAIR      35  20  54 NW3       30.24R
WALDEN         NOT AVBL
$$

COZ006>008-011-220200-
...WEST CENTRAL VALLEYS...

CITY           SKY/WX    TMP DP  RH WIND       PRES   REMARKS
GRAND JUNCTION FAIR      48  10  21 N8        30.23R
MONTROSE       FAIR      45  13  27 W3        30.27R
EAGLE          FAIR      38  19  46 SE6       30.26R
RIFLE          FAIR      45  22  40 S3        30.24R
DELTA          FAIR      50   5  16 CALM      30.23R
NUCLA          FAIR      45   3  18 SW7       30.29R
$$

COZ017>023-064>068-220200-
...SOUTHWEST COLORADO...

CITY           SKY/WX    TMP DP  RH WIND       PRES   REMARKS
DURANGO        FAIR      47   5  18 W18       30.19R
CORTEZ         FAIR      45   3  17 N6        30.25R
PAGOSA SPRINGS FAIR      45  -3  13 SE6       30.22R
TELLURIDE      FAIR      35   3  26 W6        30.33R WCI  30
WOLF CREEK PAS NOT AVBL
$$

COZ009-010-012-014-032>034-037-058>063-220200-
...CENTRAL COLORADO...

CITY           SKY/WX    TMP DP  RH WIND       PRES   REMARKS
ASPEN          FAIR      32  24  72 VRB7      30.26R WCI  26
BUENA VISTA    FAIR      34   8  32 NW8       30.20R WCI  28
COPPER MTN     FAIR      19  10  68 MISG      30.26R
BERTHOUD PASS  FAIR      10   1  67 NW36G43   30.19R WCI -13
COTTONWOOD PAS FAIR      36  12  38 W13G25    30.22R
GUNNISON       FAIR      36   9  32 NW5       30.26R
KREMMLING      FAIR      37  18  44 CALM      30.25R
LEADVILLE      FAIR      25   9  50 NE8       30.25R WCI  16
MONARCH PASS   FAIR      19   9  63 W28G36    30.37R WCI   1
SALIDA         FAIR      42  11  28 W15G22    30.27R
SUNLIGHT       FAIR      21  16  79 SW9       30.32R WCI  11
WILKERSON PASS MOCLDY    23   0  36 W8G16     30.25R WCI  14
$$

COZ069>075-220200-
...SAN LUIS VALLEY/SANGRE DE CRISTO MOUNTAINS...

CITY           SKY/WX    TMP DP  RH WIND       PRES   REMARKS
ALAMOSA        FAIR      37   4  25 NE9       30.20R
DEL NORTE      FAIR      39   6  25 S6        30.20R
LA VETA PASS   FAIR      32  19  59 S5        30.34R WCI  27
SAGUACHE       FAIR      37   5  25 N12       30.23R
$$

COZ035-036-038>040-220200-
...NORTHERN COLORADO FRONT RANGE...

CITY           SKY/WX    TMP DP  RH WIND       PRES   REMARKS
DENVER INTL AP FAIR      42  11  28 N6        30.12R
DMNS CITY PARK   N/A     47  11  23 W18       30.12R
AURORA         PTCLDY    45  11  25 NW13      30.13R
FRONT RANGE AP PTCLDY    45  12  26 CALM      30.13R
ERIE MUNI ARPT FAIR      43  13  30 E8        30.16R
BOULDER MUN AP FAIR      45  14  29 E5        30.10R
CENTENNIAL     FAIR      43  10  26 NW7       30.12R
BROOMFIELD     PTCLDY    43  12  28 CALM      30.12R
FORT COLLINS   FAIR      43  15  32 NE7       30.11R
LONGMONT       FAIR      48  12  23 SW9       30.11R
$$

COZ041-046-047-076>085-087-088-220200-
...PIKES PEAK/PALMER DIVIDE AND SOUTHERN FOOTHILLS...

CITY           SKY/WX    TMP DP  RH WIND       PRES   REMARKS
COLO. SPRINGS  FAIR      44   8  23 NE12      30.13R
A. F. ACADEMY  FAIR      40   6  24 NE7       30.14R
SCHRIEVER AFB  FAIR      40   7  24 N6        30.14R
CHEYENNE MTN   FAIR      46  -2  14 CALM      30.10R
ELLICOTT         N/A    N/A N/A N/A NE10      30.13R
FALCON         FAIR      38   5  25 N7        30.16R
FORT CARSON    FAIR      48   5  17 W9        30.11R
LIMON          FAIR      40  11  30 N12       30.11R
MONUMENT HILL  FAIR      32  12  43 CALM      30.17R
CANON CITY     FAIR      52   9  17 NW6       30.10R
WALSENBURG     FAIR      45  27  49 S7        30.13R
TRINIDAD       FAIR      49  21  33 CALM      30.11R
$$

COZ042>045-048>051-090-091-220200-
...NORTHEAST COLORADO...

CITY           SKY/WX    TMP DP  RH WIND       PRES   REMARKS
GREELEY ARPT   NOT AVBL
AKRON          FAIR      42  12  29 NW13      30.10R
BURLINGTON     FAIR      48  12  23 N10       30.07R
WRAY           FAIR      46  16  29 NW13      30.07R
YUMA           FAIR      43  14  31 W12       30.09R
STERLING       NOT AVBL
HOLYOKE        FAIR      52  19  28 NW9       30.07R
FORT MORGAN    FAIR      45  10  24 NW15      30.12R
$$

COZ086-089-092>099-220200-
...SOUTHEAST COLORADO...

CITY           SKY/WX    TMP DP  RH WIND       PRES   REMARKS
PUEBLO         FAIR      49  19  30 NE9       30.08R
LA JUNTA       FAIR      49  12  22 NE9       30.09R
LAMAR          FAIR      50  13  22 NE5       30.05R
SPRINGFIELD      N/A     43  18  36 N3        30.07R
$$




USA.gov is the U.S. government's official web portal to all federal, state and local government web resources and services.